Flag for Czech Republic Weather past 2 weeks in Ostrava, Czech Republic

Now
50 °F

Light rain. Overcast.


Feels Like: 47 °F
Forecast: 38 / 63 °F
Wind: 7 mph from Southwest

Location: Ostrava / Mosnov


UV Index: 0 (Low)

Visibility: 4 mi


Pressure: 29.86 "Hg

Humidity: 88%

Dew point: 46 °F

Location of OstravaLocation

Historic Weather in Ostrava

°F

Ostrava temperature yesterday

Maximum temperature yesterday: 64 °F (at 3:00 PM)
Minimum temperature yesterday: 44 °F (at 4:00 AM)
Average temperature yesterday: 51 °F

Past Weeks' High & Low Weather Summary

 TemperatureHumidityPressure
High71 °F (Apr 8, 3:00 PM)98% (Apr 20, 6:00 AM)30.36 "Hg (Apr 20, 6:00 AM)
Low31 °F (Apr 12, 7:00 AM)31% (Apr 18, 5:00 PM)29.75 "Hg (Apr 18, 4:00 PM)
Average47 °F74%30.02 "Hg
* Reported Apr 5 8:00 PM — Apr 20 8:00 PM, Ostrava, Weather by CustomWeather, © 2014

Note: Actual official high and low records may vary slightly from our data, if they occured in-between our weather recording intervals... More about our weather records

Advertising

Historic Weather Conditions — Data for Previous 24 hours

 ConditionsComfort  
Time TempWeatherWind HumidityBarometerVisibility
8:00 PM
Apr 20
55 °FThundershowers. Overcast.6 mph74%29.83 "Hg6 mi
7:00 PM59 °FOvercast.6 mph58%29.79 "Hg6 mi
6:00 PM63 °FPartly sunny.7 mph47%29.78 "Hg19 mi
5:00 PM61 °FPartly sunny.6 mph47%29.79 "Hg25 mi
4:00 PM65 °FPartly sunny.5 mph42%29.79 "Hg25 mi
3:00 PM65 °FOvercast.6 mph49%29.81 "Hg25 mi
2:00 PM63 °FOvercast.5 mph57%29.84 "Hg19 mi
1:00 PM60 °FOvercast.6 mph61%29.86 "Hg12 mi
12:00 PM57 °FPartly sunny.5 mph67%29.88 "Hg12 mi
11:00 AM56 °FPartly sunny.5 mph69%29.89 "Hg9 mi
10:00 AM52 °FOvercast.5 mph79%29.90 "Hg6 mi
9:00 AM52 °FFog.3 mph83%29.89 "Hg4 mi
8:00 AM49 °FFog.N/A94%29.89 "Hg3 mi
7:00 AM45 °FFog.2 mph98%29.89 "Hg3 mi
6:00 AM43 °FFog.N/A98%29.89 "Hg1 mi
5:00 AM42 °FFog.3 mph97%29.88 "Hg3 mi
4:00 AM42 °FFog.3 mph95%29.89 "Hg5 mi
3:00 AM42 °FPassing clouds.3 mph93%29.89 "Hg7 mi
2:00 AM42 °FPassing clouds.5 mph93%29.89 "Hg7 mi
1:00 AM47 °FFog.3 mph95%29.90 "Hg5 mi
12:00 AM48 °FFog.3 mph90%29.88 "Hg6 mi
11:00 PM
Apr 19
50 °FPassing clouds.7 mph88%29.86 "Hg7 mi
10:00 PM51 °FPassing clouds.7 mph84%29.88 "Hg11 mi
Weather by CustomWeather, © 2014

See weather overview